Regional Weather Roundup
Issued by NWS Bismarck, ND

Home | Current Version | Previous Version | Text Only | Print | Product List | Glossary On
Versions: 1 2 3 4 5 6 7 8 9 10 11 12 13 14 15 16 17 18 19 20 21 22 23 24 25 26 27 28 29 30 31 32 33 34 35 36 37 38 39 40 41 42 43 44 45 46 47 48 49 50
000
ASUS43 KBIS 220559
RWRBIS

NWR BROADCAST TEXT
NATIONAL WEATHER SERVICE BISMARCK ND
100 AM CDT WED OCT 22 2014

NOTE: "FAIR" INDICATES FEW OR NO CLOUDS BELOW 12,000 FEET WITH NO
SIGNIFICANT WEATHER AND/OR OBSTRUCTIONS TO VISIBILITY.


CITY           SKY/WX    TMP DP  RH WIND       PRES   REMARKS
WILLISTON      MOCLDY    54  43  66 CALM      29.63R
MINOT          CLEAR     65  42  43 S16G28    29.58R
MINOT AFB      NOT AVBL
BISMARCK       CLEAR     65  42  43 S20G28    29.66S
DICKINSON      NOT AVBL
GARRISON         N/A     61  48  62 S7        29.63R
HETTINGER ARPT MOCLDY    59  42  53 W8        29.73R
JAMESTOWN      NOT AVBL
CARRINGTON     FAIR      59  46  63 S24G31    29.73F HAZE
OAKES            N/A     59  45  58 SE16G22   29.83F
$$

CITY           SKY/WX    TMP DP  RH WIND       PRES   REMARKS
GRAND FORKS    CLEAR     55  41  59 S17G29    29.85S
GRAND FORKS AF NOT AVBL
DEVILS LAKE    PTCLDY    61  43  51 S21G29    29.71F
FARGO          CLEAR     56  41  57 SE22G33   29.90F
GWINNER        CLEAR     54  41  62 SE14      29.88S
$$

CITY           SKY/WX    TMP DP  RH WIND       PRES   REMARKS
ABERDEEN       CLEAR     63  42  46 S22G37    29.84F
MOBRIDGE       PTCLDY    66  48  52 S18G31    29.69F
RAPID CITY     PTCLDY    62  42  47 SW5       29.77S
GLASGOW        MOCLDY    51  44  77 W18       29.73R
SIDNEY         CLOUDY    61  46  59 W21G26    29.68S
WOLF POINT     CLOUDY    55  47  74 W20       29.69R
GLENDIVE       CLOUDY    54  46  76 W15       29.75R
MILES CITY     LGT RAIN  54  44  69 W18       29.81S
BAKER          LGT RAIN  54  48  80 NW20G35   29.76R
$$

CITY           SKY/WX    TMP DP  RH WIND       PRES   REMARKS
BILLINGS       PTCLDY    49  30  48 W20       29.92S
GREAT FALLS    MOCLDY    42  36  79 SW14      29.90R
$$




USA.gov is the U.S. government's official web portal to all federal, state and local government web resources and services.